星链-30832 (STARLINK-30832 )

导读

STARLINK-30832是美国太空探索技术公司(SpaceX)星链星座的组网卫星,于2023年11月18日发射升空。星链项目旨在构建全球卫星互联网星座,为全球提供高速宽带服务。该卫星加入星座后,进一步扩大了星链网络覆盖范围,推动全球卫星互联网服务能力提升。

基本信息
目录编号:
58354
目录名称:
STARLINK-30832
国际标识:
2023-177D
轨道中心:
EARTH
卫星名称:
星链-30832
卫星全名:
星链-30832 (STARLINK-30832 )
卫星状态:
在轨 (已飞行1028 天)
发射日期:
2023-11-18 UTC
国别 :
美国 (US)
星等 :
--
该卫星已列入 空间交会检测服务 Space Conjunction Data Service (SCDS) ,当前飞行风险评估等级: 无高风险
轨道信息
数据来源 国际轨道数据
星历时间: 2026-09-11T00:23:02+0800
1天前
查看轨道信息
半长轴: 6861.214km
偏心率: 0.0001767
轨道倾角: 43.006°
近地点辐角 276.748°
升交点赤经 26.376°
平近点角 83.317°
近地点: 481.864km
远地点: 484.29km
周期: 94.267分钟
每日圈数: 15.27571
详细信息
固有亮度:
5
最大亮度:
0.3
卫星平台:
Starlink v2.0 mini
覆盖范围:
全球
运营商:
太空探索技术公司
运营商所在国:
美国
制造商(研发单位):
太空探索技术公司
制造商所在国:
美国
使用方式:
暂无
卫星简介
星链(Starlink)计划是由太空探索技术公司(SpaceX)提出的一个巨型低轨卫星互联网星座项目,计划在2019年至2024年间在太空搭建由约1.2万颗卫星组成的“星链”网络,其中1584颗将部署在地球上空550千米处的近地轨道,并从2020年开始工作。该卫星仍在工作。
2D轨道图
3D轨道图
轨道高度分析图
轨道倾角分析图
轨道综合分析图
查看轨道综合分析图
交会数据列表
事件ID 空间交会对象 最接近时刻(TCA) 交会距离 交会风险概率(CRP) 交会风险指数(CRI) 操作
CDM_260913-120905-835406-646821
2026-09-13T
12:09:53+0000
0.756 km
远距离
3.144006E-5 中风险 0.65
CDM_260913-173905-835406-646821
2026-09-13T
17:39:25+0000
1.640 km
极远距离
2.407549E-6 低风险 0.43
CDM_260913-025202-841505-835423
2026-09-13T
02:52:44+0000
2.529 km
极远距离
1.437918E-6 低风险 0.38
CDM_260913-134405-835406-646821
2026-09-13T
13:44:02+0000
2.659 km
极远距离
8.309206E-7 极低风险 0.33
与全量物体交会距离演化趋势
与全量物体交会风险概率演化趋势